User: anonymous   Login
Location: Unspecified
(0.0000°N, 0.0000°E)
Time: 14:50:03
(UTC+00:00)
Language:

Orbcomm F1 (FM01) - Orbit

View from above orbital plane
View from above orbital plane
View from above satellite
View from above satellite

Ground track
Ground track

The orbit data is extracted from the following two-line orbital elements,

1 23545U 95017A   17206.06035153 +.00000192 +00000-0 +43471-4 0  9995
2 23545 069.9689 248.6368 0008831 270.7162 089.2970 14.70778144187420
Epoch (UTC): 25 July 2017 01:26:54
Eccentricity: 0.0008831
inclination: 69.9689°
perigee height: 652 km
apogee height: 665 km
right ascension of ascending node: 248.6368°
argument of perigee: 270.7162°
revolutions per day: 14.70778144
mean anomaly at epoch: 89.2970°
orbit number at epoch: 18742

The dashed part of the orbit path shows where the satellite is in the earth's shadow,  

DLR